Aérodrome :
LOGIN :

S'inscrire | Disclaimer

   EN    FR    IT 

 










Légende :    VFR   VFR Marginal   IFR   IFR Intensif   IFR Très Intensif
Visi : 
Plafond : 
>= 8 km
>= 3000ft
5 à 8 km
1000 à 3000 ft
1500m à 5 km
500 à 1000 ft
800 à 1500m
200 à 500 ft
< 800m
< 200 ft
Symboles :   Orages  Brouillard  Fortes neiges  Fortes précipitations  Vent > 20 kt
SIGMETs :   Divers  Orages  Givrage  Turbulence  Onde Orograph.  Cendres Volcan.







- Altitude de l'aérodrome : 18 ft
- Code IATA : AJA
- Voir les cartes d'approche


LFKJ - Ajaccio

DERNIER METAR :
  • 181030Z 23006KT CAVOK 22/14 Q1019 NOSIG

METARs EXPIRÉS :
  • 181000Z 23006KT CAVOK 22/12 Q1020 NOSIG
  • 180930Z 23004KT CAVOK 21/13 Q1020 NOSIG
  • 180900Z VRB02KT CAVOK 22/08 Q1020 NOSIG
  • 180830Z VRB03KT CAVOK 19/09 Q1020 NOSIG
  • 180800Z 04003KT CAVOK 16/08 Q1020 NOSIG

TAF TAF LFKJ
Valide du 18 à 09h jusqu'au 19 à 09h UTC


180800Z 1809/1909 02004KT CAVOK
BECMG 1810/1812 20010KT NSC
BECMG 1817/1819 04005KT CAVOK
ATIS : +33 4 95 23 59 85
Pas de NOTAMs connus pour ce terrain.



MET'MAP, la Météo Aéronautique d'un coup d'oeil ! - Copyright ORBIFLY Décembre 2007 - Disclaimer

ORBIFLY MET'MAP TEAM :

Programmation & Développement : Alexandra Zaïnal
Conception & Développement : Baudouin d'Aumeries
Co-Programmation & Développement : Marc-Olivier Méhu
Soutien technique & logistique : Manuel Goepfert

Contact : metmap@orbifly.com




SOURCES & CREDITS :

   NOAA